Regional Weather Roundup
Issued by NWS Portland, ME

Home | Current Version | Previous Version | Text Only | Print | Product List | Glossary On
Versions: 1 2 3 4 5 6 7 8 9 10 11 12 13 14 15 16 17 18 19 20 21 22 23 24 25 26 27 28 29 30 31 32 33 34 35 36 37 38 39 40 41 42 43 44 45 46 47 48 49 50
000
ASUS41 KGYX 211610
RWRGYX
WEATHER ROUNDUP FOR MAINE AND NEW HAMPSHIRE
NATIONAL WEATHER SERVICE GRAY ME
1200 PM EDT MON APR 21 2014

MEZ002-005-006-010-012-015-018-020-021-024-026-027-029-211700-
MAINE

CITY           SKY/WX    TMP DP  RH WIND       PRES   REMARKS
PORTLAND       MOSUNNY   52  36  54 S12       30.07F
SANFORD        SUNNY     64   9  11 SW12      30.06F
BAR HARBOR     CLOUDY    46  37  71 S22       30.08F
WISCASSET      PTSUNNY   52  33  48 S9G18     30.08F
ROCKLAND       MOSUNNY   48  37  66 S10G18    30.09F
FRYEBURG       MOSUNNY   66  27  23 S10       30.02F
LEWISTONAUBURN MOSUNNY   59  32  36 SW12      30.04F
AUGUSTA        PTSUNNY   56  31  38 S8        30.04F
WATERVILLE     PTSUNNY   55  30  38 S7        30.00F
BANGOR         PTSUNNY   53  34  48 S13       30.04F
GREENVILLE       N/A     40  27  59 E6        29.95F
MILLINOCKET    CLOUDY    45  28  51 VRB5      30.00F
HOULTON        CLOUDY    43  30  60 SW13G21   29.96F
PRESQUE ISLE   CLOUDY    45  27  49 SE10      29.93F
FRENCHVILLE    PTSUNNY   45  26  47 S8        29.86F
CARIBOU        PTSUNNY   43  30  60 S10       29.90F
$$

NHZ002-005-008-009-011-012-014-211700-
NEW HAMPSHIRE

CITY           SKY/WX    TMP DP  RH WIND       PRES   REMARKS
PORTSMOUTH     PTSUNNY   62  20  20 S13       30.07F
ROCHESTER      SUNNY     62  24  23 VRB6      30.06F
NASHUA         MOSUNNY   64  21  19 VRB6      30.09F
MANCHESTER     PTSUNNY   63  22  20 S12       30.06F
CONCORD        SUNNY     61  26  26 SE9       30.05F
LACONIA        SUNNY     59  28  31 E3        30.05F
PLYMOUTH         N/A     62  29  28 CALM      30.02F
BERLIN         CLOUDY    54  27  35 CALM      30.01F HAZE
WHITEFIELD     PTSUNNY   59  27  29 CALM      30.01F
JAFFREY        MOSUNNY   59  21  23 S9        30.08F
LEBANON        MOSUNNY   62  25  24 SW8       30.03F
MT WASHINGTON  NOT AVBL
$$

VTZ005-007-008-211700-
VERMONT

CITY           SKY/WX    TMP DP  RH WIND       PRES   REMARKS
ST JOHNSBURY     N/A     58  28  32 MISG      29.99F
MONTPELIER     MOSUNNY   63  30  28 CALM      30.03F
BURLINGTON     MOSUNNY   61  28  28 S20G28    30.00F
$$

MAZ007-012-024-CTZ003-RIZ002-NYZ038-NYZ072-211700-
SOUTHERN NEW ENGLAND AND NY

CITY           SKY/WX    TMP DP  RH WIND       PRES   REMARKS
BOSTON         PTSUNNY   59  23  25 S8        30.11F
WORCESTER      MOSUNNY   58  14  17 VRB6      30.10F
NANTUCKET      SUNNY     51  41  68 S8        30.14F
PROVIDENCE     PTSUNNY   55  38  52 S10       30.13F
HARTFORD       PTSUNNY   59  21  23 S8        30.11F
ALBANY         PTSUNNY   59  25  27 VRB6      30.08F
NEW YORK CITY  MOSUNNY   56  26  31 VRB3      30.14F
$$

ANZ081-ANZ082-ANZ150-NHZ014-MEZ023>029-211700-
COASTAL MARINE OBSERVATIONS

STATION/POSITION TIME  TEMP    WIND        PRES    WAVE
                       AIR SEA DIR/SP/G            HT/PER
                 (UTC) (F)     (DEG/KT/KT) (MB)    (FT/S)
MOUNT DESERT ROC 1600   42                 1019.6F
MATINICUS ROCK   1500   40     220/ 17/ 18 1020.8F
PORTLAND WX BUOY 1600   42 42  180/ 16/ 19 1018.8F   3/ 4
WELLS            1600   44 40  180/ 18/ 22 1018.0F
ISLE OF SHOALS   1500   43     160/ 16/ 17 1019.6F
JEFFREYS LEDGE   1500      42                N/A     2/ 8
CASHES LEDGE BUO 1600   42 42  190/ 14/ 16 1020.3F   2/ 3
$$

.............KEY..............
   WCI - WIND CHILL
   TC  - TEMPERATURE IN CELSIUS
   VSB - VISIBILITY IN MILES
   HX  - HEAT INDEX
   FAIR- INDICATES FEW OR NO CLOUDS BELOW 12,000 FT, WITH NO
         SIGNIFICANT WEATHER AND/OR OBSTRUCTIONS TO VISIBILITY.





USA.gov is the U.S. government's official web portal to all federal, state and local government web resources and services.